Simultaneous Nadir Overpasses (SNOs) Predictions

Prediction of SNOs between GOES-17 and NOAA-19 Satellite Orbit:

Table of predicted SNOs for the next 14.0 days since TLE Epoch: 8/6/2022
Index Date Time (GOES-17) GOES-17 Lat,Lon NOAA-19 Lat,Lon Distance(km) Time Diff (sec)
1 08/06/2022 05:07:12 -0.01,-137.31 -0.28,-138.43 127.89 80
2 08/07/2022 04:58:01 -0.02,-137.31 0.40,-135.54 201.99 80
3 08/09/2022 17:15:46 0.01,-137.29 0.72,-140.38 352.17 80
4 08/10/2022 17:03:54 0.01,-137.28 0.05,-137.48 23.15 80
5 08/11/2022 16:54:43 0.00,-137.27 -0.63,-134.59 305.76 80
6 08/14/2022 05:12:42 0.02,-137.24 -0.49,-139.49 257.01 80
7 08/15/2022 05:03:30 0.02,-137.23 0.15,-136.59 72.13 80
8 08/16/2022 04:51:39 0.01,-137.22 0.84,-133.71 401.18 80
9 08/17/2022 17:21:17 -0.02,-137.20 0.95,-141.44 484.06 80
10 08/18/2022 17:09:24 -0.02,-137.18 0.33,-138.54 155.47 80
11 08/19/2022 17:00:13 -0.01,-137.17 -0.36,-135.65 172.97 80
